Weather History for KODX - September, 2014

Change the Weather History Date:

Saturday, September 27, 2014

  Actual Average Record
Temperature  
Mean Temperature 67 °F 58 °F  
Max Temperature 81 °F 73 °F 89 °F (2005)
Min Temperature 53 °F 43 °F 30 °F (2002)
Degree Days  
Heating Degree Days 0 8  
Month to date heating degree days 137 97  
Since 1 July heating degree days 156 111  
Cooling Degree Days 2 1  
Month to date cooling degree days 46 79  
Year to date cooling degree days 681 836  
Growing Degree Days 18 (Base 50)    
Moisture  
Dew Point 55 °F    
Average Humidity 65    
Maximum Humidity 93    
Minimum Humidity 36    
Precipitation  
Precipitation 0.00 in 0.07 in 1.63 in (2013)
Month to date precipitation 1.67 2.27  
Year to date precipitation 19.31 21.18  
Sea Level Pressure  
Sea Level Pressure 29.99 in    
Wind  
Wind Speed 10 mph (SE)    
Max Wind Speed 23 mph    
Max Gust Speed 31 mph    
Visibility 10 miles    
Events      
T = Trace of Precipitation, MM = Missing Value Source: NWS Daily Summary

Daily Weather History Graph

Daily Weather History Graph

Search for Another Location

Airport or City:

Trip Planner

Search our weather history database for the weather conditions in past years. The results will help you decide how hot, cold, wet, or windy it might be!

Date:

Astronomy

Sep. 27, 2014 Rise Set
Actual Time 7:28 AM CDT 7:24 PM CDT
Civil Twilight 7:00 AM CDT 7:51 PM CDT
Nautical Twilight 6:28 AM CDT 8:24 PM CDT
Astronomical Twilight 5:55 AM CDT 8:56 PM CDT
Moon 10:47 AM CDT (9/27) 9:22 PM CDT (9/27)
Length of Visible Light 12h 51m
Length of Day
11h 55m
Waxing Crescent, 11% of the Moon is Illuminated
Sep 27
Waxing Crescent
Oct 1
First Quarter
Oct 8
Full
Oct 15
Last Quarter
Oct 23
New

Hourly Weather History & Observations

Time (CDT) Temp. Heat Index Dew Point Humidity Pressure Visibility Wind Dir Wind Speed Gust Speed Precip Events Conditions
12:53 AM 63.0 °F - 51.1 °F 65% 30.00 in 10.0 mi SSE 6.9 mph - N/A   Clear
1:53 AM 57.0 °F - 52.0 °F 83% 30.00 in 10.0 mi East 4.6 mph - N/A   Clear
2:53 AM 55.9 °F - 52.0 °F 87% 30.01 in 10.0 mi East 8.1 mph - N/A   Clear
3:53 AM 55.0 °F - 52.0 °F 89% 30.00 in 10.0 mi East 6.9 mph - N/A   Clear
4:53 AM 55.9 °F - 53.1 °F 90% 29.99 in 10.0 mi ESE 8.1 mph - N/A   Clear
5:53 AM 55.9 °F - 53.1 °F 90% 29.99 in 10.0 mi ESE 8.1 mph - N/A   Clear
6:53 AM 55.0 °F - 52.0 °F 89% 30.00 in 10.0 mi ESE 4.6 mph - N/A   Clear
7:53 AM 54.0 °F - 52.0 °F 93% 30.01 in 4.0 mi Calm Calm - N/A   Clear
8:53 AM 59.0 °F - 55.0 °F 87% 30.01 in 10.0 mi SE 6.9 mph - N/A   Clear
9:53 AM 66.0 °F - 55.9 °F 70% 30.00 in 10.0 mi South 8.1 mph - N/A   Clear
10:53 AM 71.1 °F - 55.9 °F 59% 30.00 in 10.0 mi South 10.4 mph - N/A   Clear
11:53 AM 75.0 °F - 57.0 °F 53% 30.00 in 10.0 mi South 15.0 mph - N/A   Clear
12:53 PM 78.1 °F - 59.0 °F 52% 29.99 in 10.0 mi South 15.0 mph - N/A   Clear
1:53 PM 80.1 °F 80.4 °F 57.0 °F 45% 29.97 in 10.0 mi SSE 17.3 mph 28.8 mph N/A   Clear
2:53 PM 81.0 °F 80.5 °F 54.0 °F 39% 29.95 in 10.0 mi South 16.1 mph 27.6 mph N/A   Partly Cloudy
3:53 PM 80.6 °F - 51.8 °F 37% 29.97 in 10.0 mi South 18.4 mph 28.8 mph N/A   Clear
4:53 PM 81.0 °F 80.7 °F 55.0 °F 41% 29.94 in 10.0 mi SSE 15.0 mph 23.0 mph N/A   Partly Cloudy
5:53 PM 80.1 °F 80.1 °F 55.0 °F 42% 29.93 in 10.0 mi SSE 12.7 mph 20.7 mph N/A   Partly Cloudy
6:53 PM 77.0 °F - 55.0 °F 47% 29.95 in 10.0 mi SSE 9.2 mph - N/A   Scattered Clouds
7:53 PM 72.0 °F - 57.0 °F 59% 29.97 in 10.0 mi SE 6.9 mph - N/A   Clear
8:53 PM 70.0 °F - 57.0 °F 63% 29.98 in 10.0 mi SE 8.1 mph - N/A   Clear
9:53 PM 68.0 °F - 55.9 °F 65% 30.00 in 10.0 mi SE 9.2 mph - N/A   Clear
10:53 PM 68.0 °F - 55.9 °F 65% 30.00 in 10.0 mi SSE 11.5 mph - N/A   Clear
11:53 PM 66.9 °F - 55.9 °F 68% 30.01 in 10.0 mi SE 8.1 mph - N/A   Overcast